Regional Weather Roundup
Issued by NWS Grand Forks, ND

Home | Current Version | Previous Version | Graphics & Text | Print | Product List | Glossary On
Versions: 1 2 3 4 5 6 7 8 9 10 11 12 13 14 15 16 17 18 19 20 21 22 23 24 25 26 27 28 29 30 31 32 33 34 35 36 37 38 39 40 41 42 43 44 45 46 47 48 49 50
000
ASUS43 KFGF 301010
RWRFGF
PRAIRIE TO PINES  WEATHER ROUNDUP
NATIONAL WEATHER SERVICE EASTERN NORTH DAKOTA/GRAND FORKS ND
500 AM CDT SAT MAY 30 2015

 **SATELLITE DATA USED TO AUGMENT SKY COVER AT AUTOMATED STATIONS**
 *****  WEATHER ACROSS EASTERN NORTH DAKOTA  *****

CITY           SKY/WX    TMP DP  RH WIND       PRES   REMARKS
GRAND FORKS    CLEAR     32  25  75 N9        30.38R WCI  24
GRAND FRKS AFB CLEAR     29  24  80 N6        30.38R WCI  23
GRAND FRKS NWS   N/A     32 N/A N/A N6          N/A
DEVILS LAKE    CLEAR     32  21  64 NE5       30.38R
FARGO          CLEAR     36  28  73 N13       30.34R
WAHPETON ARPT  SUNNY     36  30  80 N13G18    30.31R
$$

 ***** WEATHER ACROSS CENTRAL AND WESTERN NORTH DAKOTA  *****

CITY           SKY/WX    TMP DP  RH WIND       PRES   REMARKS
BISMARCK       CLEAR     35  32  88 E8        30.37R
MINOT          CLEAR     33  28  81 E6        30.37S
JAMESTOWN      CLEAR     35  27  72 NE13      30.37R
MINOT AFB      CLEAR     33  33  99 E5        30.38R
GARRISON         N/A     38  31  76 E10       30.36R
WILLISTON      PTCLDY    43  34  70 NE3       30.31R
DICKINSON      PTCLDY    34  29  82 SE6       30.28F
HETTINGER      CLEAR     32  29  88 CALM      30.31S
$$

 *****  OTHER AIRPORT OBSERVATIONS IN OUR AREA  *****

CITY           SKY/WX    TMP DP  RH WIND       PRES   REMARKS
WALHALLA         N/A     28  27  93 MISG      30.41S
GRAFTON AIRPOR FAIR      32  27  80 N8        30.40R WCI  25
VALLEY CITY AR FAIR      34  27  75 NE12G18   30.36R
CANDO          FAIR      30  25  80 NE5       30.41R
CAVALIER APRT  FAIR      32  25  74 N9        30.40R WCI  24
GWINNER        NOT AVBL
ROLLA          FAIR      28  28 100 CALM      30.40R
 ***** THE ABOVE OBSERVATIONS ARE NON NWS ARE NOT QUALITY
       CONTROLLED AND MAY MIS-REPORT RAIN FOR SNOW...
$$

  *****  WEATHER ACROSS NORTHERN MINNESOTA  *****

CITY           SKY/WX    TMP DP  RH WIND       PRES   REMARKS
FLAG ISLAND    CLOUDY    37  27  65 N16G23    30.33R
WARROAD        CLOUDY    34  28  80 NW5       30.35R
ROSEAU         CLEAR     30  25  80 NW3       30.35R
HALLOCK        CLEAR     30  25  80 N8        30.38S WCI  23
THF RVR FALLS  CLEAR     34  27  75 N12       30.35R
BAUDETTE       CLOUDY    37  27  67 N10       30.31R
WASKISH        CLOUDY    36  30  80 N5        30.30R
CROOKSTON      CLEAR     34  28  80 N9        30.37R
STEPHEN NDAWN    N/A     30  27  86 N7          N/A  WCI  23
GREENBUSH NDAW   N/A     28  28 100 NW3         N/A
$$
  *****  WEATHER ACROSS CENTRAL AND WEST MINNESOTA  *****

CITY           SKY/WX    TMP DP  RH WIND       PRES   REMARKS
FOSSTON        CLEAR     30  28  93 N10       30.32R WCI  21
BEMIDJI        CLOUDY    37  33  89 N7        30.27R
PARK RAPIDS    CLEAR     38  33  82 N15       30.26R
ELBOW LAKE     FAIR      39  35  87 N10       30.26R
WADENA         CLEAR     37  34  87 N9        30.24R
DETROIT LAKES  CLEAR     36  34  93 N8        30.29R
MOORHEAD       CLEAR     36  28  75 N9        30.34R
FERGUS FALLS   CLEAR     37  32  81 N10G16    30.29R
MORRIS MN      PTCLDY    41  36  81 N12       30.24R
STAPLES        CLEAR     37  36  93 N8        30.24R
$$
  *****  WEATHER ELSEWHERE ACROSS MINNESOTA  *****

CITY           SKY/WX    TMP DP  RH WIND       PRES   REMARKS
DULUTH         CLEAR     43  35  73 N9        30.16R
INTRNTL FALLS  CLOUDY    36  27  69 N12       30.28R
ELY            NOT AVBL
CLOQUET        CLEAR     39  34  81 N9        30.17R
WHEATON        CLEAR     36  30  80 NW13      30.31R
BRAINERD       PTCLDY    43  34  70 N9        30.22R
HIBBING        CLEAR     38  34  85 N10       30.21R
ALEXANDRIA     PTCLDY    41  35  79 N14       30.24R
SAINT CLOUD    CLEAR     43  37  79 N7        30.19R
MINNEAPOLIS    PTCLDY    48  40  73 N15       30.13R
$$

  *****  WEATHER ACROSS SOUTH DAKOTA  *****

CITY           SKY/WX    TMP DP  RH WIND       PRES   REMARKS
SIOUX FALLS    MOCLDY    45  39  79 N10       30.20R
BROOKINGS      PTCLDY    41  34  75 N12       30.24R
WATERTOWN      PTCLDY    38  32  79 N15       30.25R
HURON          PTCLDY    39  36  89 N7        30.28R
SISSETON         N/A     38  32  79 N16       30.29R
ABERDEEN       CLEAR     40  33  76 N14       30.32R
MITCHELL       CLEAR     41  38  89 NW10      30.27R
PIERRE         CLEAR     37  34  89 NE6       30.30R
MOBRIDGE       CLEAR     40  36  86 CALM      30.31R
RAPID CITY     CLEAR     35  34  96 CALM      30.30S
$$

  *****  SOME WEATHER IN NEARBY STATES *****

CITY           SKY/WX    TMP DP  RH WIND       PRES   REMARKS
GLASGOW MT     MOCLDY    44  33  65 E16       30.19F
GREAT FALLS MT MOCLDY    53  45  74 SE5       30.03F
CHEYENNE WY    CLOUDY    45  43  93 SW12      30.30F
SCOTTSBLUFF NE CLOUDY    47  46  97 S5        30.30S
OMAHA NE       CLOUDY    52  47  83 N15G24    30.11R
DES MOINES IA  CLOUDY    57  54  89 N10       30.01R
DAVENPORT IA   CLOUDY    66  63  90 SW9       29.93F
CHICAGO IL     LGT RAIN  69  65  86 W7        29.94R
EAU CLAIRE WI  CLOUDY    52  46  80 N10G20    30.06R
LA CROSSE WI   CLOUDY    60  56  86 N14       29.99R
$$

  *****  SOME NATIONAL WEATHER *****

CITY           SKY/WX    TMP DP  RH WIND       PRES   REMARKS
LA GUARDIA NY  PTCLDY    67  61  81 S7        30.20R
RALEIGH NC     PTCLDY    67  64  90 CALM      30.21R
ATLANTA GA     PTCLDY    68  60  75 E5        30.16R
NEW ORLEANS LA PTCLDY    75  71  87 CALM      30.03S
OKLAHOMA CITY  CLOUDY    67  64  90 N16       30.04R
ALBUQUERQUE NM PTCLDY    60  44  55 E23G35    30.22R
SALT LAKE CITY PTCLDY    60  43  53 SE7       30.10F
LOS ANGELES CA   N/A     57  57 100 CALM      29.92S FOG
BOISE ID       CLOUDY    70  44  39 E5        29.93S
SEATTLE WA     PTCLDY    52  47  83 SW8       29.95S
$$

*** WEATHER ACROSS MANITOBA...SASKATCHEWAN AND ONTARIO ***
                ***ONTARIO***

CITY           SKY/WX    TMP DP  RH WIND       PRES   REMARKS
GERALDTON      MOCLDY    37  36  93 NW13G21   30.09R
THUNDER BAY    MOCLDY    45  37  76 NW16      30.14R
SIOUX LOOKOUT  CLOUDY    30  21  69 N9        30.28R WCI  22
TORONTO        MOCLDY    68  63  83 SW8       29.96R
BIG TROUT LK   LGT SNOW  27  25  93 N9        30.24S WCI  17
PICKLE LAKE    NOT AVBL
DRYDEN         CLOUDY    30  21  69 N8        30.29R WCI  23
KENORA         MOCLDY    32  23  69 N7        30.33R
$$
                *** MANITOBA***

CITY           SKY/WX    TMP DP  RH WIND       PRES   REMARKS
BRANDON        PTCLDY    25  21  86 NW3       30.42S
DAUPHIN        CLOUDY    30  28  93 W6        30.43S WCI  24
ISLAND LAKE    CLOUDY    30  25  80 NW13      30.40R WCI  20
PILOT MOUND      N/A     30  23  74 NE5         N/A
THE PAS        PTCLDY    27  23  86 S5        30.41F WCI  21
THOMPSON       PTCLDY    25  21  86 W5        30.39S WCI  19
WINNIPEG       PTCLDY    30  25  80 N13       30.42R WCI  20
LYNN LAKE      CLEAR     27  23  86 SW8       30.32F WCI  18
CHURCHILL      MOCLDY    30  25  80 SW7       30.29F WCI  23
$$
                ***SASKATCHEWAN***

CITY           SKY/WX    TMP DP  RH WIND       PRES   REMARKS
ESTEVAN        MOCLDY    36  28  75 E15G22    30.36S
KINDERSLEY     CLOUDY    45  27  49 E21G28    30.22F
LLOYDMINSTER   CLOUDY    48  27  43 S15       30.22F
PRINCE ALBERT  MOCLDY    32  27  80 E6        30.35S
REGINA         MOCLDY    37  30  75 E16       30.34S
YORKTON        CLEAR     28  27  93 SE3       30.40F
N. BATTLEFORD  MOCLDY    43  28  56 SE10      30.29F
LA RONGE       PTCLDY    36  25  64 S7        30.35F
SASKATOON      MOCLDY    43  27  52 SE12      30.32F
SWIFT CURRENT  CLOUDY    43  25  49 SE21G26   30.20F
$$
NOTE: THESE ARE AUTOMATED STATIONS WITH LIMITED QUALITY CONTROL
      "FAIR" INDICATES FEW OR NO CLOUDS BELOW 12,000 FEET WITH NO
      SIGNIFICANT WEATHER AND/OR OBSTRUCTIONS TO VISIBILITY.
      SKY/WX - SKY CONDITION AND SIGNIFICANT WEATHER.
      TMP - AIR TEMPERATURE.    DP   - DEWPOINT TEMPERATURE.
      RH  - RELATIVE HUMIDITY.  PRES - PRESSURE.
      HX  - HEAT INDEX.         WCI  - WIND CHILL INDEX.
$


USA.gov is the U.S. government's official web portal to all federal, state and local government web resources and services.